GW3716 Weather Reports


time (UTC)temp
C
wind
direction
speed
KPH
gust
KPH
rain 1hr
cm
rain 24hr
cm
rain mn
cm
humidity
%
barometer
mb
20260510071504 21 174 3.2 1.6 0.00 0.00 0.00 76 1008.4
20260510071003 21 183 3.2 4.8 0.00 0.00 0.00 75 1008.4
20260510070459 21 195 4.8 6.4 0.00 0.00 0.00 74 1008.4
20260510065954 21 182 3.2 4.8 0.00 0.00 0.00 73 1008.5
20260510065452 21 174 8.0 9.7 0.00 0.00 0.00 73 1008.5
20260510064947 21 215 6.4 9.7 0.00 0.00 0.00 72 1008.4
20260510064445 22 185 6.4 9.7 0.00 0.00 0.00 71 1008.5
20260510063942 22 220 6.4 9.7 0.00 0.00 0.00 71 1008.7
20260510063438 22 182 4.8 6.4 0.00 0.00 0.00 70 1008.6
20260510062937 22 196 11.3 12.9 0.00 0.00 0.00 70 1008.7
20260510062436 22 187 9.7 11.3 0.00 0.00 0.00 69 1008.7
20260510061932 22 201 6.4 9.7 0.00 0.00 0.00 69 1008.7
20260510061429 22 178 4.8 6.4 0.00 0.00 0.00 69 1008.8
20260510060925 22 181 8.0 9.7 0.00 0.00 0.00 68 1008.8
20260510060422 22 210 6.4 9.7 0.00 0.00 0.00 68 1008.7
20260510055918 22 171 9.7 12.9 0.00 0.00 0.00 67 1008.8
20260510055414 22 178 6.4 11.3 0.00 0.00 0.00 67 1008.8
20260510054912 22 217 6.4 9.7 0.00 0.00 0.00 67 1008.6
20260510054408 22 166 4.8 6.4 0.00 0.00 0.00 67 1008.8
20260510053903 22 199 8.0 11.3 0.00 0.00 0.00 66 1008.7
20260510053359 22 155 8.0 9.7 0.00 0.00 0.00 66 1008.6
20260510052855 22 226 4.8 4.8 0.00 0.00 0.00 66 1008.8
20260510052351 22 171 4.8 6.4 0.00 0.00 0.00 66 1008.6
20260510051847 22 182 3.2 1.6 0.00 0.00 0.00 65 1008.6
20260510051344 22 177 3.2 6.4 0.00 0.00 0.00 65 1008.8
20260510050841 22 145 3.2 4.8 0.00 0.00 0.00 65 1008.6
20260510050337 21 211 6.4 9.7 0.00 0.00 0.00 64 1008.5
20260510045835 21 199 4.8 4.8 0.00 0.00 0.00 64 1008.7
20260510045331 21 183 1.6 1.6 0.00 0.00 0.00 64 1008.7
20260510044829 21 174 3.2 4.8 0.00 0.00 0.00 65 1008.6
20260510044325 21 192 3.2 4.8 0.00 0.00 0.00 64 1008.8
20260510043822 21 191 4.8 4.8 0.00 0.00 0.00 64 1008.8
20260510043318 21 192 4.8 4.8 0.00 0.00 0.00 64 1008.8
20260510042815 21 189 1.6 1.6 0.00 0.00 0.00 64 1008.9
20260510042311 22 204 3.2 1.6 0.00 0.00 0.00 63 1009.0
20260510041808 22 204 1.6 1.6 0.00 0.00 0.00 63 1009.0
20260510041305 22 201 3.2 1.6 0.00 0.00 0.00 62 1008.9
20260510040803 22 209 3.2 4.8 0.00 0.00 0.00 62 1008.9
20260510040259 22 213 4.8 4.8 0.00 0.00 0.00 62 1008.9
20260510035754 21 208 3.2 4.8 0.00 0.00 0.00 64 1008.9
20260510035250 21 230 4.8 4.8 0.00 0.00 0.00 64 1008.9
20260510034746 21 215 4.8 4.8 0.00 0.00 0.00 64 1008.8
20260510034245 21 204 1.6 1.6 0.00 0.00 0.00 64 1008.8
20260510033740 21 204 1.6 1.6 0.00 0.00 0.00 63 1008.8
20260510033238 22 203 0.0 0.0 0.00 0.00 0.00 63 1008.7
20260510032734 22 203 0.0 0.0 0.00 0.00 0.00 62 1008.6
20260510032230 22 203 0.0 0.0 0.00 0.00 0.00 61 1008.8
20260510031725 22 204 1.6 1.6 0.00 0.00 0.00 60 1008.7
20260510031222 22 203 3.2 4.8 0.00 0.00 0.00 60 1008.6
20260510030721 22 207 3.2 4.8 0.00 0.00 0.00 60 1008.6
20260510030219 22 200 1.6 1.6 0.00 0.00 0.00 60 1008.4
20260510025716 22 202 3.2 1.6 0.00 0.00 0.00 60 1008.5
20260510025213 22 199 3.2 4.8 0.00 0.00 0.00 60 1008.3
20260510024710 23 194 3.2 4.8 0.00 0.00 0.00 59 1008.3
20260510024207 23 171 3.2 1.6 0.00 0.00 0.00 58 1008.5
20260510023702 23 162 0.0 0.0 0.00 0.00 0.00 57 1008.3
20260510023159 23 162 1.6 1.6 0.00 0.00 0.00 57 1008.5
20260510022655 24 176 0.0 0.0 0.00 0.00 0.00 56 1008.3
20260510022150 24 176 0.0 0.0 0.00 0.00 0.00 54 1008.4
20260510021640 25 175 0.0 0.0 0.00 0.00 0.00 54 1008.3
20260510021137 25 169 0.0 0.0 0.00 0.00 0.00 53 1008.2
20260510020632 25 169 0.0 0.0 0.00 0.00 0.00 52 1008.0
20260510020127 25 168 3.2 4.8 0.00 0.00 0.00 51 1008.1
20260510015623 26 177 1.6 1.6 0.00 0.00 0.00 50 1008.0
20260510015120 26 162 4.8 6.4 0.00 0.00 0.00 50 1007.6
20260510014616 26 159 4.8 6.4 0.00 0.00 0.00 49 1007.7
20260510014114 26 174 6.4 6.4 0.00 0.00 0.00 48 1007.6
20260510013613 26 164 1.6 1.6 0.00 0.00 0.00 48 1007.7
20260510013109 27 179 4.8 6.4 0.00 0.00 0.00 46 1007.7
20260510012608 27 172 3.2 4.8 0.00 0.00 0.00 45 1007.6
20260510012105 28 173 9.7 11.3 0.00 0.00 0.00 43 1007.5
20260510011604 28 162 12.9 12.9 0.00 0.00 0.00 42 1007.5
20260510011101 28 169 6.4 9.7 0.00 0.00 0.00 41 1007.2
20260510010557 28 174 8.0 9.7 0.00 0.00 0.00 41 1007.3
20260510010055 29 164 8.0 9.7 0.00 0.00 0.00 40 1007.3
20260510005550 29 155 8.0 9.7 0.00 0.00 0.00 39 1007.2
20260510005048 30 172 9.7 11.3 0.00 0.00 0.00 38 1007.2
20260510004546 30 170 11.3 11.3 0.00 0.00 0.00 38 1007.2
20260510004043 30 162 9.7 12.9 0.00 0.00 0.00 37 1007.2
20260510003540 30 165 3.2 4.8 0.00 0.00 0.00 37 1007.1
20260510003036 30 172 6.4 9.7 0.00 0.00 0.00 36 1007.3
20260510002531 30 178 9.7 11.3 0.00 0.00 0.00 35 1007.2
20260510002028 31 162 8.0 11.3 0.00 0.00 0.00 34 1007.1
20260510001526 31 166 8.0 11.3 0.00 0.00 0.00 34 1007.1
20260510001024 31 162 6.4 11.3 0.00 0.00 0.00 33 1007.1
20260510000518 31 156 9.7 16.1 0.00 0.00 0.00 33 1007.1
20260510000015 31 153 11.3 11.3 0.00 0.00 0.00 31 1007.0
20260509235507 31 164 4.8 4.8 0.00 0.00 0.00 30 1007.0
20260509235003 32 161 11.3 12.9 0.00 0.00 0.00 30 1007.0
20260509234500 32 207 4.8 4.8 0.00 0.00 0.00 30 1007.0
20260509233958 32 194 8.0 9.7 0.00 0.00 0.00 31 1007.1
20260509233455 32 193 3.2 6.4 0.00 0.00 0.00 31 1007.2
20260509232951 31 146 6.4 6.4 0.00 0.00 0.00 31 1007.1
20260509232449 32 168 6.4 11.3 0.00 0.00 0.00 31 1007.3
20260509231944 32 173 9.7 12.9 0.00 0.00 0.00 30 1007.0
20260509231441 32 158 6.4 6.4 0.00 0.00 0.00 31 1007.0
20260509230939 32 166 4.8 6.4 0.00 0.00 0.00 30 1006.9
20260509230436 32 112 3.2 4.8 0.00 0.00 0.00 29 1007.2
20260509225932 32 215 9.7 11.3 0.00 0.00 0.00 28 1007.3
20260509225428 32 151 9.7 12.9 0.00 0.00 0.00 28 1007.2
20260509224925 32 163 8.0 11.3 0.00 0.00 0.00 28 1007.2
20260509224420 32 171 6.4 6.4 0.00 0.00 0.00 28 1007.0
20260509223918 32 164 14.5 17.7 0.00 0.00 0.00 28 1007.0
20260509223414 32 194 4.8 4.8 0.00 0.00 0.00 28 1007.2
20260509222911 32 230 8.0 17.7 0.00 0.00 0.00 29 1007.0
20260509222407 32 180 9.7 17.7 0.00 0.00 0.00 29 1007.0
20260509221902 32 161 11.3 11.3 0.00 0.00 0.00 27 1007.0
20260509221359 32 178 12.9 12.9 0.00 0.00 0.00 27 1007.1
20260509220854 32 151 1.6 1.6 0.00 0.00 0.00 29 1007.1
20260509220345 32 174 4.8 6.4 0.00 0.00 0.00 28 1007.1
20260509215841 32 181 6.4 6.4 0.00 0.00 0.00 28 1007.2
20260509215338 32 171 9.7 16.1 0.00 0.00 0.00 29 1007.1
20260509214835 32 180 11.3 12.9 0.00 0.00 0.00 29 1007.5
20260509214332 32 157 3.2 4.8 0.00 0.00 0.00 30 1007.3
20260509213829 32 148 3.2 4.8 0.00 0.00 0.00 30 1007.3
20260509213324 32 168 9.7 11.3 0.00 0.00 0.00 31 1007.4
20260509212822 32 198 3.2 4.8 0.00 0.00 0.00 28 1007.5
20260509212319 32 206 6.4 9.7 0.00 0.00 0.00 30 1007.4
20260509211814 32 222 11.3 16.1 0.00 0.00 0.00 27 1007.6
20260509211310 32 142 6.4 9.7 0.00 0.00 0.00 29 1008.0
20260509210807 32 113 3.2 1.6 0.00 0.00 0.00 28 1007.8
20260509210300 32 75 6.4 9.7 0.00 0.00 0.00 29 1007.7
20260509205759 31 118 3.2 4.8 0.00 0.00 0.00 29 1007.8
20260509205254 32 175 6.4 6.4 0.00 0.00 0.00 28 1008.2
20260509204750 32 211 4.8 6.4 0.00 0.00 0.00 32 1008.4
20260509204247 32 179 14.5 17.7 0.00 0.00 0.00 31 1008.4
20260509203743 32 129 9.7 11.3 0.00 0.00 0.00 27 1008.4
20260509203241 32 190 6.4 11.3 0.00 0.00 0.00 32 1008.3
20260509202737 32 167 9.7 11.3 0.00 0.00 0.00 30 1008.5
20260509202232 31 175 9.7 17.7 0.00 0.00 0.00 30 1008.5
20260509201727 31 75 3.2 4.8 0.00 0.00 0.00 28 1008.5
20260509201224 31 142 9.7 11.3 0.00 0.00 0.00 27 1008.7
20260509200721 31 152 8.0 9.7 0.00 0.00 0.00 29 1008.7
20260509200216 31 169 12.9 16.1 0.00 0.00 0.00 30 1008.7
20260509195711 31 176 20.9 24.1 0.00 0.00 0.00 30 1008.9
20260509195206 31 258 8.0 11.3 0.00 0.00 0.00 31 1008.9
20260509194701 31 179 3.2 4.8 0.00 0.00 0.00 36 1008.9
20260509194158 31 225 6.4 6.4 0.00 0.00 0.00 32 1009.0
20260509193654 31 248 6.4 11.3 0.00 0.00 0.00 34 1008.9
20260509193150 31 186 6.4 9.7 0.00 0.00 0.00 37 1009.1
20260509192646 31 141 6.4 9.7 0.00 0.00 0.00 32 1009.1
20260509192141 31 165 9.7 11.3 0.00 0.00 0.00 35 1009.2
20260509191635 31 93 1.6 1.6 0.00 0.00 0.00 34 1009.1
20260509191132 31 170 9.7 11.3 0.00 0.00 0.00 32 1009.3
20260509190629 30 178 6.4 6.4 0.00 0.00 0.00 39 1009.4
20260509190127 31 178 11.3 16.1 0.00 0.00 0.00 35 1009.2
20260509185624 31 233 16.1 16.1 0.00 0.00 0.00 35 1009.5
20260509185119 30 253 11.3 12.9 0.00 0.00 0.00 34 1009.5
20260509184612 31 175 8.0 9.7 0.00 0.00 0.00 34 1009.3
20260509184108 31 222 9.7 11.3 0.00 0.00 0.00 31 1009.5
20260509183604 31 212 8.0 9.7 0.00 0.00 0.00 34 1009.6
20260509183100 30 144 0.0 0.0 0.00 0.00 0.00 34 1009.5
20260509182556 30 82 8.0 9.7 0.00 0.00 0.00 32 1009.9
20260509182053 30 189 0.0 0.0 0.00 0.00 0.00 29 1009.9
20260509181552 30 166 12.9 16.1 0.00 0.00 0.00 34 1009.7
20260509181049 30 258 8.0 9.7 0.00 0.00 0.00 37 1010.0
20260509180544 29 251 6.4 9.7 0.00 0.00 0.00 40 1010.0
20260509180042 30 219 16.1 17.7 0.00 0.00 0.00 37 1010.3
20260509175537 30 158 16.1 17.7 0.00 0.00 0.00 34 1010.1
20260509175034 30 241 6.4 9.7 0.00 0.00 0.00 40 1010.3
20260509174530 30 223 9.7 11.3 0.00 0.00 0.00 40 1010.0
20260509174026 29 213 6.4 9.7 0.00 0.00 0.00 40 1010.4
20260509173520 29 214 6.4 9.7 0.00 0.00 0.00 39 1010.4
20260509173018 29 168 6.4 9.7 0.00 0.00 0.00 41 1010.5
20260509172514 28 146 4.8 6.4 0.00 0.00 0.00 41 1010.4
20260509172009 28 160 6.4 9.7 0.00 0.00 0.00 41 1010.7
20260509171506 28 234 14.5 17.7 0.00 0.00 0.00 42 1010.6
20260509171002 28 256 12.9 16.1 0.00 0.00 0.00 46 1010.5
20260509170458 27 232 16.1 24.1 0.00 0.00 0.00 45 1010.5
20260509165953 27 170 6.4 9.7 0.00 0.00 0.00 46 1010.4
20260509165453 27 218 12.9 16.1 0.00 0.00 0.00 47 1010.5
20260509164949 27 223 11.3 16.1 0.00 0.00 0.00 46 1010.8
20260509164445 27 173 6.4 9.7 0.00 0.00 0.00 48 1010.7
20260509163941 27 201 11.3 12.9 0.00 0.00 0.00 47 1010.8
20260509163439 27 268 12.9 16.1 0.00 0.00 0.00 46 1010.6
20260509162938 27 237 19.3 20.9 0.00 0.00 0.00 45 1010.8
20260509162437 27 205 9.7 11.3 0.00 0.00 0.00 48 1010.9
20260509161932 26 247 16.1 17.7 0.00 0.00 0.00 47 1011.0
20260509161429 26 289 12.9 16.1 0.00 0.00 0.00 49 1010.9
20260509160924 26 245 9.7 11.3 0.00 0.00 0.00 52 1010.8
20260509160420 26 276 12.9 12.9 0.00 0.00 0.00 51 1011.0
20260509155916 26 249 11.3 12.9 0.00 0.00 0.00 52 1010.7
20260509155412 26 253 12.9 16.1 0.00 0.00 0.00 54 1010.8
20260509154908 26 264 11.3 11.3 0.00 0.00 0.00 55 1010.7
20260509154405 25 201 6.4 6.4 0.00 0.00 0.00 60 1010.8
20260509153902 25 277 14.5 16.1 0.00 0.00 0.00 60 1010.7
20260509153359 26 267 11.3 11.3 0.00 0.00 0.00 61 1010.8
20260509152856 25 257 9.7 11.3 0.00 0.00 0.00 62 1011.1
20260509152352 25 272 9.7 11.3 0.00 0.00 0.00 62 1010.7
20260509151849 25 265 12.9 16.1 0.00 0.00 0.00 63 1010.9
20260509151344 25 258 9.7 11.3 0.00 0.00 0.00 65 1010.7
20260509150844 25 292 14.5 17.7 0.00 0.00 0.00 65 1010.8
20260509150341 25 211 9.7 11.3 0.00 0.00 0.00 65 1010.7
20260509145838 24 285 8.0 11.3 0.00 0.00 0.00 68 1010.8
20260509145332 24 279 14.5 17.7 0.00 0.00 0.00 67 1010.9
20260509144829 23 280 8.0 9.7 0.00 0.00 0.00 69 1010.8
20260509144326 23 232 12.9 16.1 0.00 0.00 0.00 69 1010.9
20260509143823 23 266 14.5 17.7 0.00 0.00 0.00 70 1010.7
20260509143321 23 260 11.3 12.9 0.00 0.00 0.00 72 1010.9
20260509142817 23 242 16.1 17.7 0.00 0.00 0.00 72 1010.9
20260509142313 22 251 12.9 16.1 0.00 0.00 0.00 74 1010.7
20260509141808 22 265 8.0 9.7 0.00 0.00 0.00 76 1010.7
20260509141306 22 236 11.3 11.3 0.00 0.00 0.00 77 1010.7
20260509140802 22 272 14.5 16.1 0.00 0.00 0.00 76 1010.7
20260509140259 22 279 14.5 16.1 0.00 0.00 0.00 78 1010.9
20260509135757 21 277 12.9 12.9 0.00 0.00 0.00 79 1010.7
20260509135254 21 237 11.3 12.9 0.00 0.00 0.00 80 1010.7
20260509134752 21 268 11.3 11.3 0.00 0.00 0.00 83 1010.6
20260509134249 20 259 14.5 16.1 0.00 0.00 0.00 84 1010.5
20260509133746 20 252 12.9 12.9 0.00 0.00 0.00 85 1010.7
20260509133242 20 245 12.9 12.9 0.00 0.00 0.00 87 1010.9
20260509132741 19 250 9.7 11.3 0.00 0.00 0.00 88 1010.8
20260509132240 19 256 11.3 12.9 0.00 0.00 0.00 89 1010.7
20260509131736 19 247 6.4 6.4 0.00 0.00 0.00 89 1010.6
20260509131232 19 262 6.4 6.4 0.00 0.00 0.00 90 1010.7
20260509130729 18 244 9.7 12.9 0.00 0.00 0.00 91 1010.6
20260509130224 18 244 9.7 9.7 0.00 0.00 0.00 91 1010.8
20260509125721 18 257 6.4 6.4 0.00 0.00 0.00 93 1010.6
20260509125218 18 232 6.4 6.4 0.00 0.00 0.00 94 1010.7
20260509124715 17 258 4.8 6.4 0.00 0.00 0.00 94 1010.4
20260509124211 17 266 3.2 4.8 0.00 0.00 0.00 95 1010.2
20260509123710 17 277 3.2 4.8 0.00 0.00 0.00 95 1010.3
20260509123206 17 263 4.8 6.4 0.00 0.00 0.00 95 1010.2
20260509122702 16 279 3.2 4.8 0.00 0.00 0.00 95 1010.2
20260509122159 16 271 4.8 4.8 0.00 0.00 0.00 95 1010.0
20260509121655 16 269 4.8 6.4 0.00 0.00 0.00 95 1010.0
20260509121154 16 256 4.8 6.4 0.00 0.00 0.00 95 1009.9
20260509120652 16 256 4.8 4.8 0.00 0.00 0.00 95 1010.1
20260509120149 16 239 3.2 4.8 0.00 0.00 0.00 95 1010.2
20260509115646 16 216 3.2 1.6 0.00 0.00 0.00 95 1010.0
20260509115144 16 214 1.6 1.6 0.00 0.00 0.00 95 1010.2
20260509114642 16 221 1.6 1.6 0.00 0.00 0.00 95 1010.1
20260509114141 16 225 4.8 4.8 0.00 0.00 0.00 95 1010.0
20260509113639 16 202 1.6 1.6 0.00 0.00 0.00 95 1009.9
20260509113136 16 219 3.2 4.8 0.00 0.00 0.00 95 1009.9
20260509112632 16 224 4.8 4.8 0.00 0.00 0.00 94 1009.9
20260509112129 16 213 4.8 4.8 0.00 0.00 0.00 95 1010.1
20260509111626 16 162 1.6 1.6 0.00 0.00 0.00 95 1010.3
20260509111123 16 219 0.0 0.0 0.00 0.00 0.00 94 1009.7
20260509110620 16 217 4.8 4.8 0.00 0.00 0.00 94 1009.9
20260509110117 16 125 3.2 1.6 0.00 0.00 0.00 94 1009.7
20260509105615 16 125 0.0 0.0 0.00 0.00 0.00 94 1010.0
20260509105113 16 125 1.6 1.6 0.00 0.00 0.00 93 1010.0
20260509104609 16 124 1.6 0.0 0.00 0.00 0.00 93 1010.0
20260509104108 17 123 0.0 0.0 0.00 0.00 0.00 92 1010.0
20260509103604 17 163 0.0 0.0 0.00 0.00 0.00 91 1009.7
20260509103102 17 164 1.6 1.6 0.00 0.00 0.00 91 1009.9
20260509102559 17 163 0.0 0.0 0.00 0.00 0.00 90 1009.7
20260509102056 17 169 3.2 4.8 0.00 0.00 0.00 90 1009.9
20260509101552 17 170 1.6 1.6 0.00 0.00 0.00 90 1009.6
20260509101049 18 176 3.2 1.6 0.00 0.00 0.00 89 1009.9
20260509100546 18 169 4.8 4.8 0.00 0.00 0.00 88 1009.7
20260509100044 18 187 4.8 4.8 0.00 0.00 0.00 88 1009.6
20260509095540 18 188 1.6 1.6 0.00 0.00 0.00 88 1009.7
20260509095038 18 195 0.0 0.0 0.00 0.00 0.00 87 1009.9
20260509094533 18 157 6.4 6.4 0.00 0.00 0.00 87 1009.9
20260509094031 18 179 8.0 11.3 0.00 0.00 0.00 87 1010.0
20260509093529 18 159 6.4 6.4 0.00 0.00 0.00 88 1010.2
20260509093026 18 119 0.0 0.0 0.00 0.00 0.00 89 1010.4
20260509092524 18 61 1.6 1.6 0.00 0.00 0.00 89 1010.4
20260509092023 18 151 0.0 0.0 0.00 0.00 0.00 89 1010.2
20260509091520 18 152 3.2 1.6 0.00 0.00 0.00 88 1010.6
20260509091016 18 85 1.6 1.6 0.00 0.00 0.00 88 1010.7
20260509090514 18 152 3.2 4.8 0.00 0.00 0.00 88 1010.6
20260509090011 18 160 3.2 4.8 0.00 0.00 0.00 88 1010.7
20260509085508 18 172 4.8 6.4 0.00 0.00 0.00 88 1010.7
20260509085004 18 145 4.8 6.4 0.00 0.00 0.00 88 1010.8
20260509084501 18 160 6.4 6.4 0.00 0.00 0.00 90 1010.5
20260509083958 18 132 3.2 6.4 0.00 0.00 0.00 94 1010.8
20260509083456 18 76 0.0 0.0 0.00 0.00 0.00 95 1010.7
20260509082952 18 74 9.7 11.3 0.00 0.00 0.00 95 1011.1
20260509082449 18 56 11.3 12.9 0.00 0.00 0.00 95 1011.3
20260509081946 18 68 9.7 12.9 0.00 0.00 0.00 95 1011.3
20260509081444 18 38 8.0 9.7 0.00 0.00 0.00 95 1011.2
20260509080941 18 50 3.2 4.8 0.00 0.00 0.00 95 1011.0
20260509080439 18 68 1.6 1.6 0.00 0.00 0.00 95 1010.9
20260509075937 18 69 0.0 0.0 0.00 0.00 0.00 95 1011.0
20260509075433 18 68 0.0 0.0 0.00 0.00 0.00 95 1011.1
20260509074932 18 26 4.8 6.4 0.00 0.00 0.00 95 1011.2
20260509074428 18 95 1.6 1.6 0.00 0.00 0.00 95 1011.0
20260509073925 18 51 4.8 6.4 0.00 0.00 0.00 95 1011.2
20260509073421 18 33 4.8 4.8 0.00 0.00 0.00 95 1011.2
20260509072918 18 57 4.8 6.4 0.00 0.00 0.00 95 1011.0
20260509072415 18 39 4.8 6.4 0.00 0.00 0.00 95 1011.1
20260509071911 18 62 3.2 1.6 0.00 0.00 0.00 95 1010.6